[[{"header":{"parameterUnit":"m.s-1","parameterCategory":1,"la1":30.2991,"la2":30.254,"lo1":-89.0895,"lo2":-89.0444,"dy":0.0017,"dx":0.0017,"nx":28,"ny":28,"refTime":"2024-08-07T21:00:00:Z","depth":0,"parameterNumber":2,"parameterNumberName":"U-component_of_WINDS"},"data":[0,0,0,0,0,0,0,0,0,0,0,0,0,0,0,0,0,0,0,0,0,0,0,0,0,0,0,0,0,0,0,0,0,0,0,0,0,0,0,0,0,0,0,0,0,0,0,0,0,0,0,0,0,0,0,0,0,0,2.4845,2.4846,0,2.4914,2.4915,2.4916,2.4916,2.4915,2.4914,2.4913,2.4985,2.4988,2.499,0,0,0,0,0,0,0,0,0,0,0,0,0,2.4713,2.4715,2.4845,2.4846,2.4847,2.4914,2.4915,2.4916,2.4916,2.4915,2.4914,2.4913,2.4984,2.4987,2.4991,0,0,0,0,0,0,0,0,0,0,0,0,0,2.4775,2.4716,2.4845,2.4855,2.4856,2.4914,2.4915,2.4916,2.4916,2.4915,2.4914,2.4912,2.4983,2.4987,2.4991,2.5043,0,0,2.5004,2.5005,0,0,0,0,0,0,0,0,2.4771,2.478,2.4852,2.4854,2.4856,2.4905,2.4895,2.4959,2.4917,2.4894,2.4913,2.4912,2.496,2.4965,2.4981,2.5047,2.505,2.5004,2.5007,2.5008,2.5009,0,0,0,0,0,0,0,2.4767,2.4777,2.4872,2.4853,2.4856,2.4856,2.4863,2.4907,2.4933,2.4895,2.4896,2.4904,2.496,2.4977,2.4983,2.5051,2.5004,2.5008,2.501,2.5012,2.516,2.5162,0,0,0,0,0,0,2.4761,2.4773,2.487,2.4874,2.481,2.4859,2.4867,2.4891,2.4933,2.4938,2.4905,2.4904,2.4971,2.4978,2.4986,2.5048,2.5008,2.5012,2.5014,2.5159,2.5161,2.5162,0,0,0,0,0,0,2.4758,2.4769,2.4867,2.4824,2.4836,2.4863,2.4889,2.4893,2.491,2.494,2.4945,2.4918,2.497,2.498,2.5028,2.505,2.5014,2.5018,2.5157,2.5159,2.5161,2.5174,0,0,0,0,0,0,2.4754,2.4768,2.4789,2.4824,2.4839,2.4909,2.489,2.4895,2.4917,2.4916,2.4953,2.4958,2.497,2.5022,2.5033,2.5055,2.5021,2.5155,2.5158,2.5161,2.5172,2.5176,2.518,0,0,0,0,0,2.4749,2.479,2.479,2.4801,2.4864,2.491,2.4918,2.4931,2.4919,2.4939,2.4958,2.4957,2.5047,2.5027,2.5039,2.5063,2.5154,2.5157,2.5161,2.517,2.5175,2.518,0,0,0,0,0,0,2.4757,2.4795,2.4795,2.4848,2.4876,2.491,2.4936,2.4937,2.4969,2.4967,2.4982,2.499,2.5038,2.5056,2.5034,2.5115,2.5099,2.5105,2.5102,2.5107,2.5112,2.5106,2.5024,0,0,0,0,0,2.4765,2.4798,2.483,2.4874,2.4888,2.491,2.493,2.4937,2.4967,2.4979,2.5001,2.503,2.5065,2.5087,2.5121,2.5174,2.5182,2.5197,2.5201,2.5205,2.5209,2.5237,2.5244,2.5173,2.5173,2.5173,0,0,2.4781,2.4806,2.4827,2.4876,2.4898,2.4933,2.492,2.4957,2.4982,2.4985,2.5031,2.5049,2.5082,2.5133,2.5156,2.5149,2.523,2.5209,2.5211,2.5214,2.5241,2.5248,2.5254,2.5176,2.5175,2.5175,0,0,2.4828,2.4851,2.4889,2.4912,2.4945,2.4959,2.4968,2.5003,2.5014,2.5061,2.5063,2.5094,2.5153,2.5176,2.5196,2.525,2.525,2.5261,2.5283,2.531,2.5315,2.532,2.5338,2.5345,2.5265,2.5265,2.5265,0,2.4845,2.4896,2.4909,2.4946,2.4967,2.497,2.5008,2.5029,2.5073,2.5087,2.5078,2.5152,2.5175,2.523,2.5243,2.5259,2.5269,2.5256,2.5314,2.5319,2.5324,2.5341,2.5348,2.5266,2.5266,2.5266,2.5266,0,2.4914,2.495,2.4977,2.5017,2.5041,2.5079,2.5097,2.512,2.5125,2.514,2.5187,2.5214,2.5252,2.5266,2.5272,2.5322,2.5316,2.531,2.5294,2.5331,2.5347,2.5354,2.5268,2.5268,2.5267,2.5267,0,0,2.4968,2.5014,2.5023,2.5041,2.5077,2.5105,2.5143,2.5179,2.5198,2.5228,2.5259,2.5309,2.5303,2.5325,2.5334,2.5357,2.5397,2.5349,2.535,2.5355,2.5452,2.5455,2.5462,2.5397,2.5398,2.54,2.5448,0,2.5018,2.5083,2.5095,2.5152,2.5185,2.5187,2.522,2.5246,2.526,2.529,2.5307,2.5341,2.5332,2.5345,2.5369,2.5387,2.5416,2.5384,2.5425,2.5426,2.5415,2.5471,2.5475,2.5519,2.5455,2.5456,2.5457,0,2.5085,2.5115,2.5174,2.5205,2.5219,2.5248,2.5282,2.531,2.534,2.5348,2.5372,2.5378,2.5416,2.5399,2.5451,2.5429,2.5446,2.5458,2.546,2.5463,2.5443,2.5474,2.5534,2.554,2.5467,2.5467,2.5466,0,2.5116,2.5171,2.5214,2.5229,2.5266,2.5286,2.5303,2.5331,2.5351,2.5381,2.5395,2.5429,2.5447,2.5474,2.5488,2.5474,2.5539,2.5523,2.5546,2.5546,2.5559,2.5558,2.5621,2.5573,2.5573,2.5573,2.5573,0,2.517,2.5206,2.5228,2.5254,2.5294,2.5308,2.5347,2.5363,2.5388,2.5417,2.5422,2.5449,2.5467,2.5497,2.5508,2.5549,2.5558,2.5566,2.5568,2.5564,2.5563,2.5575,2.5572,2.5575,2.5574,2.5574,2.5574,0,2.5211,2.5227,2.5273,2.5305,2.5313,2.5341,2.5368,2.5393,2.5408,2.5444,2.5453,2.5476,2.5511,2.5528,2.5572,2.558,2.5625,2.5627,2.5615,2.5616,2.5638,2.5635,2.571,2.572,2.5666,2.5667,2.5667,0,2.5243,2.5271,2.5304,2.5324,2.534,2.5372,2.5393,2.5407,2.5428,2.5463,2.5483,2.5518,2.5547,2.5603,2.5623,2.5656,2.5657,2.5681,2.5663,2.5657,2.5656,2.5653,2.5656,2.5684,2.5685,2.5685,2.5686,0,2.5298,2.5305,2.5334,2.5366,2.5391,2.5417,2.5443,2.5458,2.5477,2.55,2.5536,2.5558,2.5602,2.5636,2.567,2.5687,2.5689,2.5692,2.5698,2.5694,2.5686,2.5689,2.5623,2.569,2.5689,2.5689,2.5689,2.5689,2.5335,2.5359,2.5386,2.5418,2.5439,2.5462,2.5487,2.5504,2.5533,2.5569,2.5576,2.5613,2.5641,2.5687,2.5705,2.5734,2.5729,2.5739,2.5741,2.5743,2.5744,2.5682,2.5741,2.5741,2.574,2.574,2.574,0,2.5389,2.5406,2.5436,2.5471,2.5496,2.5495,2.5523,2.5544,2.5576,2.5602,2.5629,2.5669,2.5702,2.5725,2.5758,2.5777,2.5779,2.5785,2.5783,2.5787,2.5747,2.5737,2.5783,2.5783,2.5783,2.5783,2.5783,2.5783,2.542,2.546,2.5469,2.5519,2.5536,2.5571,2.5587,2.5609,2.5628,2.5672,2.5699,2.5714,2.5738,2.5773,2.5803,2.5808,2.582,2.5826,2.5832,2.5794,2.579,2.5785,2.5776,2.5829,2.5829,2.5869,2.5869,2.5869]},{"header":{"parameterUnit":"m.s-1","parameterCategory":1,"la1":30.2991,"la2":30.254,"lo1":-89.0895,"lo2":-89.0444,"dy":0.0017,"dx":0.0017,"nx":28,"ny":28,"refTime":"2024-08-07T21:00:00:Z","depth":0,"parameterNumber":3,"parameterNumberName":"V-component_of_WINDS"},"data":[0,0,0,0,0,0,0,0,0,0,0,0,0,0,0,0,0,0,0,0,0,0,0,0,0,0,0,0,0,0,0,0,0,0,0,0,0,0,0,0,0,0,0,0,0,0,0,0,0,0,0,0,0,0,0,0,0,0,-2.3871,-2.3872,0,-2.3961,-2.3962,-2.3963,-2.3946,-2.3945,-2.3943,-2.3942,-2.4031,-2.4035,-2.4039,0,0,0,0,0,0,0,0,0,0,0,0,0,-2.3682,-2.3685,-2.3871,-2.3872,-2.3873,-2.3961,-2.3962,-2.3963,-2.3947,-2.3945,-2.3943,-2.3941,-2.403,-2.4035,-2.4039,0,0,0,0,0,0,0,0,0,0,0,0,0,-2.3767,-2.3687,-2.387,-2.3875,-2.3877,-2.3961,-2.3962,-2.3964,-2.3947,-2.3945,-2.3942,-2.394,-2.4028,-2.4034,-2.404,-2.4124,0,0,-2.4058,-2.406,0,0,0,0,0,0,0,0,-2.3762,-2.3774,-2.3873,-2.3875,-2.3877,-2.394,-2.3928,-2.4017,-2.3948,-2.392,-2.3941,-2.3939,-2.4003,-2.401,-2.4033,-2.4128,-2.4132,-2.4058,-2.4062,-2.4064,-2.4066,0,0,0,0,0,0,0,-2.3756,-2.377,-2.3906,-2.3875,-2.3877,-2.3872,-2.3882,-2.3945,-2.3974,-2.3922,-2.3921,-2.3932,-2.4003,-2.4027,-2.4035,-2.4133,-2.4058,-2.4063,-2.4067,-2.4069,-2.4304,-2.4307,0,0,0,0,0,0,-2.3749,-2.3765,-2.3903,-2.3909,-2.3812,-2.3878,-2.3888,-2.3922,-2.3973,-2.3978,-2.3934,-2.3931,-2.4018,-2.4028,-2.4038,-2.4141,-2.4064,-2.407,-2.4073,-2.4301,-2.4305,-2.4308,0,0,0,0,0,0,-2.3745,-2.3762,-2.39,-2.3837,-2.3854,-2.3883,-2.3922,-2.3925,-2.3949,-2.3982,-2.3987,-2.3954,-2.4017,-2.4029,-2.4103,-2.4143,-2.4072,-2.4078,-2.4298,-2.4302,-2.4306,-2.4346,0,0,0,0,0,0,-2.374,-2.376,-2.3793,-2.3838,-2.3858,-2.3965,-2.3924,-2.3929,-2.396,-2.3956,-2.4002,-2.4007,-2.4016,-2.4095,-2.4109,-2.415,-2.4082,-2.4295,-2.43,-2.4305,-2.4342,-2.4351,-2.436,0,0,0,0,0,-2.3733,-2.38,-2.3795,-2.3812,-2.3899,-2.3967,-2.3978,-2.3988,-2.3963,-2.3996,-2.4017,-2.4005,-2.4137,-2.4102,-2.4118,-2.4162,-2.4292,-2.4298,-2.4304,-2.4338,-2.4349,-2.436,0,0,0,0,0,0,-2.3758,-2.3806,-2.3801,-2.3884,-2.3922,-2.3964,-2.4006,-2.4,-2.4045,-2.404,-2.4049,-2.406,-2.4135,-2.4156,-2.4117,-2.4247,-2.4211,-2.422,-2.423,-2.4242,-2.4251,-2.4244,-2.4087,0,0,0,0,0,-2.3773,-2.3825,-2.3864,-2.3933,-2.3953,-2.3976,-2.4006,-2.401,-2.4049,-2.4065,-2.4092,-2.4129,-2.4179,-2.4212,-2.4259,-2.4345,-2.4354,-2.4382,-2.4391,-2.4399,-2.4407,-2.4455,-2.4468,-2.4328,-2.4328,-2.4328,0,0,-2.3805,-2.3837,-2.3869,-2.3939,-2.3969,-2.4022,-2.3989,-2.4046,-2.4086,-2.4073,-2.4145,-2.4166,-2.4209,-2.4289,-2.4326,-2.4308,-2.4448,-2.4407,-2.4412,-2.4417,-2.4462,-2.4476,-2.4487,-2.4332,-2.4331,-2.4331,0,0,-2.389,-2.392,-2.3982,-2.4013,-2.4058,-2.4074,-2.4089,-2.4132,-2.4146,-2.4219,-2.4211,-2.4257,-2.4343,-2.4374,-2.4401,-2.4499,-2.449,-2.4515,-2.4562,-2.4608,-2.4619,-2.4629,-2.4665,-2.4678,-2.4523,-2.4523,-2.4523,0,-2.3923,-2.4003,-2.4014,-2.4073,-2.4104,-2.4096,-2.4159,-2.4188,-2.4247,-2.4268,-2.4248,-2.4357,-2.4385,-2.4473,-2.4497,-2.4519,-2.4536,-2.4509,-2.4617,-2.4627,-2.4636,-2.4671,-2.4684,-2.4525,-2.4525,-2.4525,-2.4525,0,-2.4043,-2.4098,-2.4143,-2.4201,-2.4237,-2.4298,-2.4317,-2.4352,-2.4354,-2.4371,-2.4446,-2.4479,-2.4534,-2.4555,-2.4557,-2.4644,-2.4632,-2.4615,-2.4579,-2.4652,-2.4685,-2.4698,-2.4529,-2.4528,-2.4528,-2.4527,0,0,-2.4145,-2.421,-2.4226,-2.4253,-2.4304,-2.4347,-2.4407,-2.4462,-2.4492,-2.4533,-2.4584,-2.4657,-2.4642,-2.4672,-2.4677,-2.4718,-2.4795,-2.4696,-2.4697,-2.4714,-2.4894,-2.4907,-2.4922,-2.479,-2.4792,-2.4794,-2.4891,0,-2.4235,-2.4342,-2.4354,-2.445,-2.4502,-2.4496,-2.4548,-2.4585,-2.4603,-2.4649,-2.4669,-2.4721,-2.4697,-2.4715,-2.4755,-2.4777,-2.4832,-2.477,-2.4837,-2.4839,-2.4827,-2.4939,-2.4953,-2.5043,-2.4903,-2.4906,-2.4907,0,-2.4355,-2.4401,-2.4502,-2.4547,-2.4569,-2.4616,-2.4668,-2.4712,-2.4754,-2.4764,-2.48,-2.48,-2.4862,-2.4824,-2.4909,-2.4867,-2.4895,-2.491,-2.4914,-2.4921,-2.4878,-2.4949,-2.5071,-2.5085,-2.4927,-2.4925,-2.4924,0,-2.442,-2.4507,-2.4579,-2.4602,-2.4656,-2.469,-2.4713,-2.4753,-2.4786,-2.4831,-2.4852,-2.4903,-2.4931,-2.4971,-2.4985,-2.4956,-2.507,-2.5033,-2.5081,-2.5081,-2.5105,-2.5103,-2.5234,-2.5122,-2.5122,-2.5122,-2.5122,0,-2.452,-2.4582,-2.461,-2.4654,-2.4724,-2.4737,-2.4805,-2.4827,-2.4862,-2.4911,-2.4908,-2.4954,-2.4969,-2.5017,-2.5029,-2.5098,-2.5111,-2.5121,-2.5123,-2.5122,-2.512,-2.514,-2.5134,-2.5126,-2.5125,-2.5124,-2.5123,0,-2.4604,-2.4625,-2.4704,-2.4749,-2.4762,-2.4811,-2.485,-2.4893,-2.491,-2.4972,-2.4987,-2.5015,-2.5072,-2.509,-2.5157,-2.5165,-2.5247,-2.5243,-2.5233,-2.5233,-2.528,-2.5276,-2.5428,-2.5449,-2.5323,-2.5325,-2.5326,0,-2.4667,-2.4715,-2.4766,-2.4799,-2.4824,-2.4877,-2.4911,-2.4925,-2.4961,-2.5013,-2.5049,-2.5106,-2.5151,-2.5242,-2.5268,-2.532,-2.5318,-2.5368,-2.5326,-2.5323,-2.532,-2.5317,-2.5322,-2.5376,-2.5377,-2.5378,-2.5379,0,-2.4776,-2.4784,-2.4834,-2.4887,-2.4928,-2.4971,-2.5012,-2.5038,-2.5059,-2.5099,-2.5157,-2.5193,-2.5263,-2.5319,-2.5373,-2.5397,-2.5392,-2.5392,-2.5406,-2.5405,-2.5398,-2.5403,-2.5255,-2.5389,-2.5388,-2.5387,-2.5386,-2.5386,-2.4852,-2.4895,-2.4938,-2.4993,-2.5026,-2.5065,-2.5108,-2.5132,-2.5181,-2.524,-2.5245,-2.5309,-2.535,-2.5422,-2.5448,-2.5498,-2.5484,-2.5504,-2.5509,-2.5514,-2.5518,-2.539,-2.5508,-2.5507,-2.5507,-2.5507,-2.5507,0,-2.4961,-2.4989,-2.504,-2.5098,-2.5142,-2.5135,-2.518,-2.5217,-2.5273,-2.5312,-2.5358,-2.5426,-2.5481,-2.5512,-2.5566,-2.56,-2.5599,-2.5614,-2.5612,-2.5618,-2.5527,-2.551,-2.5614,-2.5614,-2.5614,-2.5614,-2.5614,-2.5614,-2.5023,-2.5096,-2.511,-2.5199,-2.5226,-2.5289,-2.5315,-2.5351,-2.5383,-2.5459,-2.5505,-2.5525,-2.5562,-2.5619,-2.5669,-2.5677,-2.5697,-2.5714,-2.572,-2.5635,-2.5624,-2.5613,-2.5597,-2.5718,-2.5718,-2.5807,-2.5808,-2.5808]}]]